Flag for Haiti Weather past 2 weeks in Port-au-Prince, Haiti

Now
68 °F

Fog.


Feels Like: 68 °F
Forecast: 70 / 94 °F
Wind: No wind

Location: Santiago

Current Time: Oct 1, 2014 at 6:35:20 AM

Latest Report: Oct 1, 2014 at 6:00 AM


Visibility: 1 mi

Pressure: 29.98 "Hg

Humidity: 100%

Dew point: 68 °F

Location of Port-au-PrinceLocation

Historic Weather in Port-au-Prince — Graph

°F

Port-au-Prince temperature yesterday

Maximum temperature yesterday: 90 °F (at 3:00 PM)
Minimum temperature yesterday: 72 °F (at 3:00 AM)
Average temperature yesterday: 79 °F

Past Weeks' High & Low Weather Summary

 TemperatureHumidityPressure
High91 °F (Sep 16, 2:00 PM)100% (Sep 16, 5:00 AM)30.04 "Hg (Sep 16, 5:00 AM)
Low68 °F (Oct 1, 5:00 AM)52% (Sep 16, 2:00 PM)29.83 "Hg (Sep 23, 3:00 PM)
Average79 °F85%29.94 "Hg
* Reported Sep 16 5:00 AM — Oct 1 5:00 AM, Port-au-Prince, Weather by CustomWeather, © 2014

Note: Actual official high and low records may vary slightly from our data, if they occured in-between our weather recording intervals... More about our weather records

Advertising

Port-au-Prince weather history for previous 24 hours

 ConditionsComfort  
Time TempWeatherWind HumidityBarometerVisibility
5:00 AM
Oct 1
68 °FFog.No wind100%29.95 "Hg1 mi
4:00 AM70 °FPassing clouds.3 mph100%29.95 "HgN/A
3:00 AM72 °FPassing clouds.No wind94%29.95 "HgN/A
2:00 AM72 °FPassing clouds.No wind94%29.95 "HgN/A
1:00 AM73 °FPassing clouds.5 mph94%29.95 "HgN/A
12:00 AM75 °FPassing clouds.5 mph89%29.98 "HgN/A
11:00 PM
Sep 30
77 °FPassing clouds.No wind83%29.98 "HgN/A
10:00 PM77 °FPassing clouds.6 mph83%29.95 "HgN/A
9:00 PM77 °FPassing clouds.7 mph83%29.95 "HgN/A
8:00 PM79 °FPassing clouds.9 mph79%29.92 "HgN/A
7:00 PM82 °FPassing clouds.12 mph74%29.92 "HgN/A
6:00 PM86 °FScattered clouds.9 mph66%29.92 "HgN/A
5:00 PM88 °FScattered clouds.12 mph62%29.89 "HgN/A
4:00 PM90 °FScattered clouds.14 mph59%29.89 "HgN/A
3:00 PM90 °FScattered clouds.7 mph59%29.89 "HgN/A
2:00 PM88 °FPassing clouds.12 mph62%29.92 "HgN/A
1:00 PM86 °FPassing clouds.12 mph66%29.95 "HgN/A
12:00 PM86 °FPassing clouds.12 mph66%29.95 "HgN/A
11:00 AM82 °FPassing clouds.14 mph74%29.98 "HgN/A
10:00 AM81 °FScattered clouds.7 mph84%29.98 "HgN/A
9:00 AM75 °FFog.5 mph100%29.98 "Hg2 mi
8:00 AM72 °FFog.No wind100%29.95 "Hg1 mi
7:00 AM72 °FFog.No wind100%29.95 "Hg1 mi
6:00 AM72 °FPassing clouds.No wind100%29.92 "HgN/A
Weather by CustomWeather, © 2014

See weather overviewHow to use our weather pages